Zurück zum Katalog

GRACE-FO 2

AktivWissenschaftPO
NORAD 43477·PAYLOAD·🇺🇸 United States

Gestartet May 22, 2018 von Vandenberg Space Force Base

Loading…

Nächste Überflüge (nächste 24 Stunden)

TLE

AktuellSource: CelesTrak SupGP

Epoche: Sep 14, 2026, 00:01 UTC

1 43477C 18047B   26257.00118056  .00092270  00000+0  23403-2 0  2578
2 43477  88.9998 185.7614 0010600 113.2140 214.8221 15.39430295    11

Verfolge GRACE-FO 2 in Echtzeit mit AllMySat

Download on the App Store